Regional Weather Roundup
Issued by NWS Sioux Falls, SD

Home | Current Version | Previous Version | Text Only | Print | Product List | Glossary On
Versions: 1 2 3 4 5 6 7 8 9 10 11 12 13 14 15 16 17 18 19 20 21 22 23 24 25 26 27 28 29 30 31 32 33 34 35 36 37 38 39 40 41 42 43 44 45 46 47 48 49 50
000
ASUS43 KFSD 161402
RWRFSD

WEATHER ROUNDUP FOR SE SOUTH DAKOTA/SW MINNESOTA/NW IOWA
NATIONAL WEATHER SERVICE SIOUX FALLS SD
900 AM CDT WED AUG 16 2017

NOTE: "FAIR" INDICATES FEW OR NO CLOUDS BELOW 12,000 FEET WITH NO
SIGNIFICANT WEATHER AND OR OBSTRUCTIONS TO VISIBILITY.


SDZ038>040-050-052>070-161500-
SOUTHEAST SOUTH DAKOTA

CITY           SKY/WX    TMP DP  RH WIND       PRES   REMARKS
BROOKINGS      LGT RAIN  66  64  93 S7        29.86R
CHAMBERLAIN    CLOUDY    67  67 100 N3        29.84F
HURON          LGT RAIN  66  66 100 CALM      29.84R FOG
MADISON        LGT RAIN  64  64 100 CALM      29.87R
MITCHELL       LGT RAIN  66  66 100 E5        29.85R FOG
SIOUX FALLS    LGT RAIN  67  66  97 E7        29.84S FOG
WINNER         CLOUDY    68  66  93 NW9       29.85S
YANKTON        RAIN      66  65  96 N5        29.82S FOG
$$

MNZ071-072-080-081-089-090-097-098-161500-
SOUTHWEST MINNESOTA

CITY           SKY/WX    TMP DP  RH WIND       PRES   REMARKS
FAIRMONT       CLOUDY    66  65  96 SE6       29.88F FOG
JACKSON        FOG       66  66 100 CALM      29.88S VSB 1
MARSHALL       CLOUDY    67  66  97 SE7       29.85F FOG
MONTEVIDEO     CLOUDY    66  66 100 S6        29.85F
PIPESTONE      RAIN      66  64  94 S5        29.87R
REDWOOD FALLS  CLOUDY    67  64  90 SE7       29.86S FOG
TRACY          CLOUDY    68  68  98 SE6       29.86F FOG
WINDOM         CLOUDY    66  64  94 SE6       29.87F FOG
WORTHINGTON    CLOUDY    67  66  97 E7        29.87S FOG
$$

IAZ001>003-012>014-020>022-031-032-NEZ013-014-SDZ071-161500-
NORTHWEST IOWA

CITY           SKY/WX    TMP DP  RH WIND       PRES   REMARKS
CHEROKEE       CLOUDY    68  68 100 NE8       29.83F FOG
DENISON        CLOUDY    72  70  94 E12       29.80F
ESTHERVILLE    FOG       65  65 100 SE12      29.87F VSB 3/4
LE MARS        LGT RAIN  68  68 100 E7        29.81S
ORANGE CITY    LGT RAIN  70  70 100 E8        29.82F VSB 1
SHELDON        LGT RAIN  68  68 100 E5        29.83F
SIOUX CITY     TSTM      68  68 100 E13       29.80S FOG
SPENCER        CLOUDY    68  67  96 E10       29.85F FOG
STORM LAKE     FOG       68  68 100 E8        29.84S VSB<1/4
$$

ABBREVIATIONS USED IN REMARKS
   TC - TEMPERATURE IN CELSIUS
  WCI - WIND CHILL INDEX
   HX - HEAT INDEX
  VSB - VISIBILITY





USA.gov is the U.S. government's official web portal to all federal, state and local government web resources and services.